Regional Weather Roundup
Issued by NWS

Home | Current Version | Previous Version | Text Only | Print | Product List | Glossary Off
Versions: 1 2 3 4 5 6 7 8 9 10 11 12 13 14 15 16 17 18 19 20 21 22 23 24 25 26 27 28 29 30 31 32 33 34 35 36 37 38 39 40 41 42 43 44 45 46 47 48 49 50

846
ASUS45 KSLC 270510
RWRUT

UTAH REGIONAL WEATHER ROUNDUP
NATIONAL WEATHER SERVICE SALT LAKE CITY UT
1100 PM MDT WED APR 26 2017

UTZ001>011-023>025-270600-

NORTHERN UTAH

CITY           SKY/WX    TMP DP  RH WIND       PRES   REMARKS
BRIGHAM CITY   CLOUDY    47  40  74 SW5       29.74S
HILL AFB       MOCLDY    44  40  85 S6        29.74S
LOGAN          LGT RAIN  46  41  82 CALM      29.72S
OGDEN          MOCLDY    43  41  93 S5        29.73S
SALT LAKE CITY MOCLDY    47  44  90 SE7       29.73S
TOOELE VALLEY  CLOUDY    45  41  87 S6        29.75S
WENDOVER       CLOUDY    49  39  68 W10       29.75F
HEBER CITY     CLOUDY    39  37  93 S3        29.73S
WEST JORDAN    MOCLDY    46  46 100 CALM      29.75S

$$

UTZ011>015-024>027-270600-

CENTRAL/NORTHEAST UTAH

CITY           SKY/WX    TMP DP  RH WIND       PRES   REMARKS
PROVO AIRPORT  CLOUDY    46  43  89 CALM      29.76S
MOAB/CANYONLAN CLOUDY    57  30  35 NE3       29.66S
DELTA          MOCLDY    45  43  93 CALM      29.77S
PRICE          MOCLDY    41  39  93 CALM      29.74F
ROOSEVELT      CLOUDY    43  37  81 N3        29.75F
VERNAL         LGT RAIN  44  38  79 W6        29.73F

$$

UTZ013>016-019>022-027-270600-

SOUTHERN UTAH

CITY           SKY/WX    TMP DP  RH WIND       PRES   REMARKS
BRYCE CANYON   LGT RAIN  43  34  70 NW9       29.83R
CEDAR CITY     CLOUDY    52  38  58 NW10      29.78R
MILFORD        LGT RAIN  50  44  80 N8        29.78R
ST GEORGE      MOCLDY    65  33  30 E5        29.65S
HANKSVILLE     CLOUDY    52  43  71 W12       29.75R
BLANDING       CLOUDY    49  22  33 W8        29.83R

$$

REGIONAL REPORTS     COLORADO/ARIZONA

CITY           SKY/WX    TMP DP  RH WIND       PRES   REMARKS
CRAIG, CO      CLOUDY    42  32  67 S8        29.72F
GRAND JUNCTION CLOUDY    52  30  43 E9        29.70F
RIFLE, CO      CLOUDY    44  35  70 CALM      29.74F
MONTROSE, CO   CLOUDY    46  32  58 S5        29.79F
CORTEZ, CO     MOCLDY    47  34  60 NE20      29.76F
COLORADO CITY    N/A     52  34  50 CALM      29.77R
PAGE, AZ       PTCLDY    66  29  24 VRB6      29.67F
GRAND CANYON   PTCLDY    50  25  37 SW13      29.87R
KINGMAN, AZ    PTCLDY    69  30  23 SW17      29.73F
FLAGSTAFF, AZ  CLEAR     51  20  29 SW15G28   29.90R

$$

REGIONAL REPORTS    NEVADA/IDAHO/WYOMING

CITY           SKY/WX    TMP DP  RH WIND       PRES   REMARKS
LAS VEGAS, NV  MOCLDY    77  40  26 SW14      29.62R
ELY, NY        CLOUDY    42  38  85 NE5       29.86F
ELKO, NV       MOCLDY    44  37  76 W5        29.84R
POCATELLO, ID  CLOUDY    44  41  89 SW20G25   29.69S
BURLEY, ID     LGT RAIN  41  37  86 SW15      29.72R
FORT BRIDGER,    N/A     35  35 100 W9        29.74S WCI  28
EVANSTON, WY   CLOUDY    34  34 100 SW18      29.71F WCI  23
ROCK SPRINGS,  LGT RAIN  37  33  85 SW16      29.71S WCI  28
KEMMERER, WY     N/A     34  32  93 SW13      29.70S WCI  25

$$




USA.gov is the U.S. government's official web portal to all federal, state and local government web resources and services.